[[{"header":{"parameterUnit":"m.s-1","parameterCategory":1,"la1":30.2992,"la2":30.254,"lo1":-89.0895,"lo2":-89.0443,"dy":0.0025,"dx":0.0025,"nx":19,"ny":19,"refTime":"2026-03-25T03:00:00:Z","depth":0,"parameterNumber":2,"parameterNumberName":"U-component_of_WINDS"},"data":[0,0,0,-4.4966,-4.4968,-4.5041,-4.5042,-4.5153,-4.5155,0,0,0,0,0,0,0,0,0,0,0,-4.4956,-4.4957,-4.4966,-4.4968,-4.5041,-4.5042,-4.5153,-4.5155,0,0,0,0,0,0,0,0,0,0,0,-4.4955,-4.4956,-4.4958,-4.4968,-4.5041,-4.5042,-4.5153,-4.5091,0,0,0,0,0,0,0,0,0,0,-4.5017,-4.5017,-4.4956,-4.4958,-4.4969,-4.5041,-4.5042,-4.5088,-4.5095,-4.5128,0,-4.5161,0,-4.516,-4.5163,-4.5164,0,0,0,-4.4959,-4.5012,-4.5022,-4.4958,-4.497,-4.5041,-4.5006,-4.5091,-4.51,-4.5138,-4.5163,-4.5166,-4.5162,-4.5164,-4.5165,-4.539,-4.5391,0,0,-4.4955,-4.4974,-4.5016,-4.5028,-4.5018,-4.5004,-4.5008,-4.5096,-4.5124,-4.5163,-4.5169,-4.5164,-4.5165,-4.5166,-4.5389,-4.539,0,0,0,-4.495,-4.4972,-4.4979,-4.5024,-4.5036,-4.5006,-4.5011,-4.512,-4.5121,-4.517,-4.5165,-4.5166,-4.5167,-4.5387,-4.5389,-4.548,0,0,0,-4.4947,-4.4968,-4.4978,-4.499,-4.5035,-4.5079,-4.5033,-4.5115,-4.5124,-4.5165,-4.5166,-4.5169,-4.5385,-4.5388,-4.5474,-4.5518,0,0,0,-4.4947,-4.4968,-4.4983,-4.4991,-4.5024,-4.5077,-4.5083,-4.5116,-4.5122,-4.5164,-4.5169,-4.5384,-4.5388,-4.5468,-4.5509,-4.5583,0,0,0,-4.4952,-4.506,-4.4985,-4.5105,-4.5023,-4.5134,-4.5082,-4.5163,-4.521,-4.5167,-4.5385,-4.5389,-4.5467,-4.5504,-4.5577,-4.5647,-4.5678,0,0,-4.5099,-4.5079,-4.5148,-4.5083,-4.5212,-4.5121,-4.5263,-4.5287,-4.5273,-4.5352,-4.5357,-4.5476,-4.5509,-4.5582,-4.5851,-4.5876,0,0,0,-4.5201,-4.5251,-4.5282,-4.5329,-4.5352,-4.5376,-4.5377,-4.5387,-4.5453,-4.5318,-4.5523,-4.5542,-4.5584,-4.5616,-4.5637,-4.5672,-4.5405,-4.5405,-4.5405,-4.5433,-4.5413,-4.5527,-4.5517,-4.5564,-4.5567,-4.5603,-4.5616,-4.5579,-4.5629,-4.565,-4.5816,-4.5855,-4.5871,-4.5907,-4.5688,-4.5688,-4.5688,-4.5688,-4.5646,-4.5713,-4.5668,-4.5761,-4.574,-4.5818,-4.5827,-4.58,-4.5869,-4.5797,-4.5833,-4.5754,-4.5899,-4.593,-4.5695,-4.5694,-4.5693,-4.5692,-4.5692,-4.5793,-4.5821,-4.5835,-4.5904,-4.596,-4.5947,-4.6017,-4.5995,-4.5974,-4.601,-4.6031,-4.6029,-4.6024,-4.6023,-4.6023,-4.6024,-4.6024,-4.6025,-4.6025,-4.5938,-4.5951,-4.6013,-4.6053,-4.6082,-4.6118,-4.6127,-4.6155,-4.618,-4.6158,-4.6158,-4.6117,-4.5918,-4.5867,-4.6034,-4.6032,-4.6031,-4.603,-4.603,-4.6156,-4.6105,-4.6202,-4.6232,-4.6278,-4.6336,-4.631,-4.637,-4.639,-4.6426,-4.638,-4.6237,-4.6213,-4.6196,-4.6154,-4.6384,-4.6384,-4.6384,-4.6384,-4.6278,-4.6266,-4.6362,-4.6413,-4.646,-4.6448,-4.6559,-4.6569,-4.657,-4.6582,-4.6546,-4.6489,-4.6473,-4.6459,-4.6436,-4.6396,-4.6683,-4.6683,-4.6684,-4.641,-4.6403,-4.6501,-4.6505,-4.6541,-4.6572,-4.6676,-4.6735,-4.6726,-4.6695,-4.659,-4.6578,-4.6486,-4.6457,-4.6418,-4.6383,-4.6309,0,0]},{"header":{"parameterUnit":"m.s-1","parameterCategory":1,"la1":30.2992,"la2":30.254,"lo1":-89.0895,"lo2":-89.0443,"dy":0.0025,"dx":0.0025,"nx":19,"ny":19,"refTime":"2026-03-25T03:00:00:Z","depth":0,"parameterNumber":3,"parameterNumberName":"V-component_of_WINDS"},"data":[0,0,0,2.9675,2.9676,2.9732,2.9732,2.9775,2.9775,0,0,0,0,0,0,0,0,0,0,0,2.9643,2.9643,2.9675,2.9676,2.9732,2.9732,2.9775,2.9775,0,0,0,0,0,0,0,0,0,0,0,2.9644,2.9643,2.9643,2.9676,2.9732,2.9732,2.9775,2.9742,0,0,0,0,0,0,0,0,0,0,2.9692,2.965,2.9643,2.9643,2.9676,2.9732,2.9732,2.9741,2.9744,2.9738,0,2.9731,0,2.9754,2.9776,2.9776,0,0,0,2.9686,2.9647,2.9676,2.9643,2.9676,2.9732,2.9709,2.9743,2.9746,2.9742,2.9732,2.9734,2.9754,2.9776,2.9776,2.9715,2.9714,0,0,2.9682,2.9645,2.9673,2.9677,2.9671,2.9707,2.9711,2.9745,2.9731,2.9732,2.9736,2.9755,2.9776,2.9776,2.9715,2.9714,0,0,0,2.9667,2.9642,2.9671,2.9675,2.9687,2.9709,2.9713,2.973,2.9742,2.9736,2.9756,2.9776,2.9777,2.9716,2.9715,2.9642,0,0,0,2.9665,2.9633,2.9669,2.9646,2.9686,2.971,2.9696,2.974,2.9745,2.9755,2.9776,2.9777,2.9717,2.9716,2.9646,2.9613,0,0,0,2.9645,2.9631,2.9635,2.9644,2.9668,2.971,2.9725,2.9742,2.9756,2.9776,2.9777,2.9718,2.9716,2.965,2.9619,2.9586,0,0,0,2.9611,2.9568,2.9633,2.9592,2.9667,2.9666,2.9726,2.9726,2.9735,2.9777,2.9717,2.9715,2.9651,2.9623,2.959,2.9551,2.9532,0,0,2.9536,2.9557,2.9536,2.9596,2.9575,2.966,2.9627,2.9669,2.9703,2.9708,2.9707,2.9645,2.962,2.9587,2.9439,2.9424,0,0,0,2.95,2.9484,2.9487,2.9495,2.9527,2.9552,2.9604,2.9619,2.9625,2.9699,2.9626,2.9612,2.9594,2.9577,2.9564,2.955,2.9706,2.9706,2.9706,2.9338,2.9387,2.9355,2.9411,2.9417,2.9471,2.948,2.9509,2.9555,2.9536,2.9538,2.9443,2.9422,2.9412,2.9398,2.9522,2.9522,2.9522,2.9522,2.9232,2.9217,2.9281,2.9273,2.9323,2.9315,2.9364,2.9397,2.9395,2.9446,2.9432,2.9483,2.9394,2.9384,2.9517,2.9517,2.9518,2.9519,2.9519,2.9131,2.9133,2.9154,2.9171,2.9177,2.9234,2.923,2.9276,2.9318,2.9305,2.9311,2.9312,2.9318,2.9305,2.9304,2.9304,2.9304,2.9304,2.9303,2.9018,2.9045,2.9038,2.9069,2.908,2.91,2.9153,2.9164,2.9187,2.9221,2.9221,2.9267,2.9377,2.9403,2.9298,2.9299,2.93,2.93,2.9301,2.8892,2.8928,2.8917,2.8928,2.8968,2.897,2.903,2.9047,2.9063,2.9059,2.9108,2.9182,2.9207,2.9218,2.924,2.9099,2.9099,2.9099,2.9099,2.8806,2.8824,2.8823,2.8838,2.8857,2.8909,2.8892,2.8931,2.8978,2.8989,2.9016,2.905,2.9059,2.9078,2.9092,2.9113,2.8943,2.8943,2.8943,2.8731,2.8753,2.8731,2.878,2.8814,2.8842,2.8826,2.8837,2.8897,2.8937,2.8999,2.9006,2.906,2.9076,2.9116,2.9137,2.9177,0,0]}]]